{"data":{"norad_id":67868,"intl_designator":"2026-034U","name":"STARLINK-36762","alt_names":[],"object_type":"PAYLOAD","status":"ACTIVE","operator":null,"country":"US","launch_date":"2026-02-20","launch_site_code":"AFETR","launch_vehicle":null,"mission":null,"orbit_class":"UNKNOWN","rcs_meters":null,"size_class":null,"mass_kg":null,"dimensions":null,"purposes":["comms"],"wikipedia_slug":null,"has_3d_model":false,"image_url":null,"decayed_at":null,"tle_current":{"epoch":"2026-09-19T19:38:04.490592Z","epoch_age_seconds":122233,"freshness":"FRESH","line1":"1 67868U 26034U   26262.81810753  .00017135  00000+0  51699-3 0  9990","line2":"2 67868  53.1610  20.6947 0001235  91.7411 268.3733 15.34406492 33786","mean_motion":15.34406492,"eccentricity":0.0001235,"inclination_deg":53.161,"raan_deg":20.6947,"arg_perigee_deg":91.7411,"mean_anomaly_deg":268.3733,"bstar":0.00051699,"rev_number":3378,"period_min":93.847361015988,"perigee_km":461.83910329634,"apogee_km":463.52878606968,"semimajor_km":6840.820944683,"source":"CELESTRAK","updated_at":"2026-09-20T09:00:43.692253Z"}}}